This is the latest recevied weather packets stored in our database for station/object WA3NOA-2. If no packets are shown the sender has not sent any weather packets the latest 10 day(s).
| Time | Temp. | Humidity | Pressure | Rain* | Wind** | Luminosity | Snow |
|---|---|---|---|---|---|---|---|
| 1778255827 | 17.22° C | 43% | 1007.1 hPa | 0 mm | - | - | - |
| 1778255527 | 17.22° C | 42% | 1007.3 hPa | 0 mm | - | - | - |
| 1778255288 | 16.67° C | 46% | 1007.1 hPa | 0 mm | - | - | - |
| 1778255227 | 16.67° C | 41% | 1007 hPa | 0 mm | - | - | - |
| 1778254927 | 16.67° C | 49% | 1007.2 hPa | 0 mm | - | - | - |
| 1778254627 | 16.11° C | 46% | 1007.3 hPa | 0 mm | - | - | - |
| 1778254388 | 16.11° C | 47% | 1007.4 hPa | 0 mm | - | - | - |
| 1778254327 | 16.11° C | 45% | 1007.4 hPa | 0 mm | - | - | - |
| 1778254026 | 16.11° C | 45% | 1007.4 hPa | 0 mm | - | - | - |
| 1778253727 | 16.67° C | 49% | 1007.5 hPa | 0 mm | - | - | - |
| 1778253488 | 16.67° C | 44% | 1007.5 hPa | 0 mm | - | - | - |
| 1778253427 | 16.67° C | 45% | 1007.5 hPa | 0 mm | - | - | - |
| 1778253127 | 16.11° C | 49% | 1007.5 hPa | 0 mm | - | - | - |
| 1778252827 | 16.11° C | 46% | 1007.5 hPa | 0 mm | - | - | - |
| 1778252588 | 16.11° C | 44% | 1007.5 hPa | 0 mm | - | - | - |
| 1778252527 | 16.11° C | 45% | 1007.5 hPa | 0 mm | - | - | - |
| 1778252226 | 16.11° C | 46% | 1007.6 hPa | 0 mm | - | - | - |
| 1778251926 | 16.11° C | 50% | 1007.6 hPa | 0 mm | - | - | - |
| 1778251688 | 15.56° C | 49% | 1007.6 hPa | 0 mm | - | - | - |
| 1778251626 | 15.56° C | 47% | 1007.7 hPa | 0 mm | - | - | - |
| 1778251327 | 15.56° C | 47% | 1007.7 hPa | 0 mm | - | - | - |
| 1778251027 | 15° C | 51% | 1007.7 hPa | 0 mm | - | - | - |
| 1778250788 | 14.44° C | 50% | 1007.7 hPa | 0 mm | - | - | - |
| 1778250726 | 13.89° C | 50% | 1007.6 hPa | 0 mm | - | - | - |
| 1778250426 | 14.44° C | 48% | 1007.7 hPa | 0 mm | - | - | - |
* Rain latest hour (hover to see other rain measurements)
** Current wind speed in m/s (hover to see current wind gust speed)